Temperature
21 22 22 22 18 18 20 21 22 21 20 21 22 22 22 22 21 21 23 23 22 20 20 20 21 22 22 21 21 20 20 19 19 19 19 19 19 18 18 18 18 18 18 18 18 18 18 18 18
22 22 22 21 17 18 20 21 21 21 20 21 21 21 21 21 22 22 23 23 21 21 21 22 21 21 21 21 21 20 19 19 19 19 19 19 19 19 18 18 18 18 18 18 18 18 18 17 17
22 22 22 18 16 19 21 21 20 20 20 20 20 20 20 20 21 22 22 22 21 21 22 21 21 21 21 21 21 20 19 20 19 19 18 18 18 18 19 19 18 18 18 18 18 18 18 18 18
22 22 20 19 19 20 21 21 20 19 20 20 20 19 19 20 22 23 22 22 21 22 22 20 21 21 20 20 20 19 19 19 19 19 18 18 18 18 17 18 18 18 17 17 18 17 18 18 18
23 22 17 18 20 21 20 21 21 19 20 21 21 19 19 21 22 22 22 21 21 22 21 21 20 20 19 19 20 19 18 18 18 18 18 17 18 18 17 17 17 17 18 17 18 17 18 17 17
22 20 19 19 19 21 21 22 21 20 20 21 20 19 19 20 21 21 21 21 22 22 21 20 20 20 20 19 20 19 18 18 18 17 17 17 17 17 17 17 17 17 17 18 17 18 17 17 17
21 18 20 19 20 22 21 21 21 19 19 20 21 19 20 21 21 21 20 20 21 21 20 20 20 19 19 19 19 19 18 18 17 17 17 17 17 17 17 17 17 17 17 17 17 17 17 17 17
22 18 19 20 21 24 23 22 23 21 20 22 21 20 20 22 21 20 19 19 19 19 19 19 19 19 19 19 19 18 18 18 17 17 17 17 17 17 17 17 17 17 17 17 17 16 16 16 16
22 18 20 22 23 23 23 22 23 23 22 21 21 22 23 22 20 20 19 19 19 19 19 19 20 20 20 20 19 19 18 18 17 17 17 17 17 17 17 17 17 17 16 16 17 17 17 17 17
21 19 22 23 24 23 23 23 23 22 21 21 21 22 22 20 20 20 19 20 20 19 20 22 21 21 21 20 19 18 17 17 17 17 17 17 17 17 17 17 17 17 17 17 17 17 17 17 17
21 22 22 23 25 24 23 24 24 22 21 22 22 21 21 20 20 20 20 21 20 20 21 22 22 22 21 21 20 19 17 16 16 16 16 16 16 16 16 16 16 16 17 17 17 17 17 17 17
22 23 23 24 25 24 23 24 23 23 24 25 25 25 22 22 21 20 20 21 20 21 22 22 22 22 22 21 19 18 17 16 16 16 16 16 16 16 16 16 16 16 16 16 16 16 16 16 16
22 23 24 25 25 25 24 24 23 24 25 24 23 23 24 23 21 20 21 20 21 21 22 22 22 21 21 20 19 19 18 17 16 16 16 16 16 16 16 16 16 16 16 16 16 16 16 16 16
22 22 23 24 24 24 24 23 23 24 24 23 23 23 23 22 22 20 20 20 21 21 21 22 21 21 20 19 19 19 18 17 16 16 16 15 15 15 15 16 16 16 16 16 16 16 16 15 15
22 22 22 23 24 24 24 22 22 25 24 23 23 23 22 22 21 21 21 22 22 21 21 21 21 21 20 19 19 19 18 17 16 16 16 15 15 15 15 15 16 15 15 15 15 15 15 15 15
20 20 21 21 22 23 23 21 22 25 23 22 22 22 21 21 22 21 22 22 22 21 20 20 21 21 20 19 19 18 17 16 16 15 15 15 15 15 15 15 15 14 14 14 14 13 13 14 14
18 19 21 21 21 21 21 21 21 24 22 21 22 22 21 21 21 21 22 22 22 21 21 21 21 21 20 20 19 18 16 16 15 15 15 15 15 14 14 14 14 14 13 13 13 13 13 13 13
19 20 20 19 20 20 20 19 20 21 21 22 23 22 22 21 22 22 22 21 21 21 20 20 20 19 19 18 18 17 16 15 15 15 15 15 15 14 14 14 14 13 13 13 13 13 13 13 13
20 20 20 19 20 20 20 21 20 19 19 19 20 21 22 22 22 21 21 21 21 20 19 19 19 18 17 17 17 16 16 15 15 15 15 14 14 14 14 13 13 13 13 13 13 13 14 13 12
18 19 19 20 20 20 21 20 19 20 20 20 21 22 22 22 22 21 21 20 20 19 19 19 18 17 16 16 16 16 16 15 15 14 14 14 14 14 14 14 13 13 13 13 12 12 12 12 11
19 18 20 20 20 19 19 19 18 19 18 18 17 17 17 17 18 18 18 18 18 18 19 18 17 17 16 16 16 15 15 14 14 14 14 14 14 14 15 14 13 13 12 12 11 11 10 10 10
20 20 20 20 19 18 18 18 18 15 14 12 13 14 14 15 16 17 17 17 17 18 18 18 18 17 16 15 15 14 14 14 14 14 14 14 14 14 13 12 12 12 11 11 11 11 10 10 9
20 19 18 17 17 18 16 17 18 15 13 12 11 12 13 14 16 17 18 18 18 18 18 17 16 15 15 14 14 14 14 14 14 13 13 13 12 12 11 11 10 10 10 10 10 9 9 8 8
18 17 14 13 14 16 17 17 15 12 11 12 11 12 13 14 16 16 17 16 16 15 15 14 14 14 15 15 14 13 13 12 12 11 11 11 10 10 10 10 10 9 9 9 9 8 8 8 7
17 18 17 17 16 17 15 15 12 10 10 11 10 11 12 13 14 14 14 14 14 14 14 14 15 15 15 14 13 12 11 10 9 9 9 9 9 9 9 9 9 8 8 7 7 7 6 6 6
18 16 16 16 15 15 15 14 11 11 11 11 10 10 11 12 13 13 13 13 13 13 13 13 13 13 12 11 10 10 9 8 8 8 8 8 8 8 8 8 8 7 6 6 6 5 5 5 5
17 17 16 14 13 14 14 12 12 11 10 10 10 10 10 10 11 11 12 12 12 12 12 12 11 10 10 9 9 9 9 9 9 8 8 8 8 8 7 7 7 6 6 6 5 4 3 3 3
17 17 14 16 14 13 14 12 11 10 9 8 8 8 9 10 11 11 12 12 12 11 11 10 10 10 9 9 9 9 9 8 8 7 7 7 6 6 5 5 5 5 4 3 3 2 2 2 2
17 15 15 14 14 14 14 12 10 9 8 7 7 8 9 10 10 11 11 11 11 10 10 10 9 9 9 9 8 8 8 7 7 6 5 4 3 3 3 3 2 2 2 2 2 2 2 2 2
14 13 13 14 13 11 12 11 9 8 8 7 7 8 8 9 9 9 10 10 10 9 9 9 9 8 8 8 8 8 7 6 6 5 4 2 2 1 1 1 1 1 1 1 1 2 2 2 2
Wind_Speed
1 2 3 3 5 4 2 3 3 3 4 3 5 5 9 7 6 6 7 5 8 7 8 4 4 9 12 12 10 10 10 9 10 10 10 8 7 6 6 5 4 4 4 4 3 2 3 2 3
2 3 4 4 4 2 4 4 3 4 3 4 3 2 2 3 4 7 6 6 8 3 1 5 5 6 8 10 10 10 10 11 10 9 10 9 7 6 4 3 2 2 2 2 2 2 3 3 3
3 3 3 4 3 4 4 4 3 3 2 2 1 3 2 5 7 5 3 8 7 2 5 4 7 10 9 8 11 10 12 12 11 10 10 8 5 5 7 7 4 5 4 3 1 1 2 3 4
3 3 4 3 3 5 5 5 7 6 3 1 2 0 3 5 4 2 5 9 6 4 8 4 4 7 9 8 10 6 7 9 11 11 10 7 3 2 6 3 2 4 5 4 4 5 5 6 6
4 4 4 2 5 5 4 5 9 6 2 3 3 2 3 4 5 7 8 8 6 5 6 7 4 3 5 7 10 5 4 5 6 7 9 8 7 4 8 5 5 3 3 4 3 3 5 8 8
3 3 2 2 6 5 4 8 8 3 3 2 4 3 2 0 2 7 7 7 4 4 4 6 4 3 3 4 8 5 3 3 3 4 6 6 6 6 7 2 3 4 3 5 8 5 7 8 7
3 3 2 3 5 3 4 9 7 7 5 5 6 4 2 0 3 8 6 7 5 3 4 5 3 3 4 8 10 7 5 4 3 4 5 5 3 2 2 1 2 2 6 7 7 7 5 4 7
4 4 1 2 3 2 4 7 5 7 4 4 4 4 4 5 6 9 7 7 5 4 4 4 5 5 5 8 9 9 10 9 7 6 4 2 3 4 4 2 3 8 10 9 8 4 5 10 13
4 4 3 2 1 3 5 5 3 4 5 2 2 3 7 12 11 10 8 6 5 5 4 4 4 4 6 7 8 9 8 8 7 6 6 6 5 4 4 3 4 6 7 8 9 9 10 11 13
3 1 4 4 2 2 3 4 6 5 4 2 1 5 12 14 12 10 11 9 7 6 5 4 4 4 5 6 7 6 5 5 4 3 3 4 4 4 6 5 6 7 8 8 10 12 12 12 11
3 3 4 5 3 4 6 7 6 9 5 8 8 12 13 13 11 11 12 9 8 7 7 6 6 6 5 4 4 3 3 3 2 0 1 3 5 5 5 5 7 8 8 9 10 9 9 10 9
1 4 3 4 1 4 6 7 6 8 6 6 13 18 17 17 16 12 10 8 9 9 9 8 6 5 5 5 3 1 1 1 1 1 2 4 4 4 4 4 5 7 7 7 6 6 7 9 10
1 3 4 5 3 3 4 5 7 10 2 6 11 14 18 18 14 11 9 8 9 10 8 7 6 5 3 3 3 2 1 2 3 4 3 4 4 3 3 2 2 3 4 4 5 6 7 8 10
2 4 7 4 2 3 4 2 3 6 5 9 10 12 12 13 14 10 7 8 9 9 7 5 5 4 4 3 3 3 4 4 4 2 2 3 4 3 2 1 1 3 3 4 5 5 5 6 7
2 4 5 3 1 4 4 0 6 6 10 11 12 11 8 9 12 14 15 15 14 9 7 7 6 5 5 5 4 4 4 4 2 1 0 2 2 1 0 2 3 6 7 8 8 7 7 6 6
4 4 3 5 0 2 6 9 11 7 12 12 10 9 8 10 14 16 15 13 9 8 8 7 7 7 7 6 4 3 3 3 3 3 3 3 3 2 2 2 4 8 10 9 7 7 7 7 7
4 0 2 6 2 2 3 9 8 8 10 10 11 12 9 9 9 11 11 8 8 9 9 9 8 8 9 7 4 2 1 0 1 2 4 6 8 9 8 6 8 11 9 6 6 6 6 7 9
1 0 2 5 4 1 4 8 6 3 11 14 12 7 6 8 9 6 6 7 7 6 4 3 2 5 5 5 5 4 4 4 7 8 8 9 10 11 8 6 7 8 5 6 6 6 8 8 10
3 1 3 7 4 1 4 6 3 2 5 7 4 5 8 8 2 4 6 7 8 8 8 8 9 9 6 4 2 3 3 3 4 7 9 10 10 10 7 4 4 4 4 7 9 7 9 8 7
4 3 4 5 5 1 2 4 3 3 3 4 4 5 6 4 4 5 8 9 8 9 10 10 9 8 5 4 3 3 3 3 3 2 4 6 5 4 3 2 3 4 5 7 7 7 7 6 5
4 5 4 4 2 5 5 6 8 7 9 12 10 8 9 6 6 7 9 10 10 9 9 9 8 8 6 6 5 4 4 2 2 2 2 2 2 3 3 3 4 5 4 5 6 6 5 7 5
2 3 4 4 4 3 4 1 3 5 9 11 10 11 11 10 10 10 10 9 9 8 9 9 9 9 7 6 5 4 2 1 3 3 4 4 6 7 8 8 7 5 4 4 4 5 4 6 7
4 5 4 5 5 2 5 2 5 6 9 9 9 10 11 10 11 12 11 10 10 8 8 8 8 8 6 7 6 5 2 2 3 3 5 6 6 8 10 10 8 6 5 6 6 5 5 5 9
7 7 8 6 5 2 1 1 4 6 7 4 6 8 9 10 11 12 12 11 10 8 8 7 8 7 5 6 5 3 2 3 4 4 5 6 6 6 8 11 9 7 6 6 7 8 8 8 11
6 6 3 3 3 3 2 3 2 8 9 2 4 7 9 10 10 10 10 9 8 7 7 6 7 6 7 7 7 6 6 5 5 5 5 6 6 6 9 9 7 8 7 8 9 10 11 10 12
4 8 7 6 4 3 2 3 1 4 8 7 7 8 10 10 9 10 10 9 9 9 8 8 7 8 9 9 8 8 7 5 4 4 5 6 7 9 10 8 9 10 11 10 11 12 12 11 12
5 4 5 7 2 1 1 3 2 4 8 9 9 10 10 9 8 8 7 8 8 7 7 8 8 9 8 7 6 6 5 5 5 6 6 6 7 8 10 10 13 13 13 13 13 12 13 13 12
4 7 4 3 6 4 4 4 7 4 3 6 8 8 8 8 8 8 8 8 8 7 7 8 7 5 4 4 5 5 5 5 6 7 8 9 9 10 11 12 13 14 14 13 13 12 12 12 11
3 3 4 4 3 5 6 5 3 5 3 3 5 5 6 6 7 7 7 6 6 7 7 8 8 8 8 8 7 7 7 7 8 8 10 11 12 12 13 14 15 15 14 13 12 12 12 13 13
5 4 4 4 2 3 4 3 4 5 4 3 3 4 3 4 5 5 6 6 7 7 7 7 7 7 8 8 9 9 10 10 10 10 11 12 13 13 14 14 13 13 12 12 12 13 13 12 13
Wind_Direction
230 78 102 70 57 62 247 244 223 213 204 176 141 155 168 171 181 236 320 19 85 62 0 337 114 113 127 135 143 144 143 138 137 135 129 122 123 131 143 156 156 143 140 139 136 131 123 79 39
46 59 53 64 84 96 254 252 229 217 163 111 67 24 101 263 286 312 347 55 80 68 30 87 109 108 113 128 139 150 151 146 141 139 136 133 137 141 148 140 143 146 139 132 117 76 36 23 12
54 58 73 80 110 189 223 239 172 126 130 3 16 8 344 302 315 320 346 80 83 27 92 117 153 133 128 145 146 159 163 155 155 150 144 140 151 178 179 171 182 217 201 185 197 244 271 280 293
97 60 49 84 227 228 205 198 151 156 197 171 172 321 294 299 290 12 59 103 107 72 86 113 104 121 134 150 141 158 167 165 172 161 145 136 143 317 298 268 232 240 244 233 225 223 246 264 276
60 79 52 12 260 248 223 180 158 166 175 176 186 199 276 293 320 42 75 96 115 106 99 98 70 64 111 158 134 149 179 185 185 164 144 154 164 193 271 305 316 304 273 291 292 287 286 283 290
53 73 68 273 266 265 219 167 148 158 196 197 144 139 309 182 50 72 71 62 64 75 88 99 94 68 64 89 106 129 166 194 190 158 145 163 188 201 233 266 291 297 330 339 316 313 292 291 311
121 100 198 237 277 274 185 149 151 172 180 212 173 124 306 230 148 105 82 68 63 99 110 105 99 110 98 82 81 89 86 84 109 136 151 172 189 172 155 157 297 300 52 33 12 22 338 27 40
126 106 275 248 265 276 162 151 148 138 176 180 166 171 206 174 135 99 87 90 108 114 94 86 90 91 87 86 87 89 91 86 80 75 87 103 99 115 120 124 69 67 68 64 72 62 63 62 47
104 65 325 299 243 252 164 155 111 120 124 145 220 199 153 127 123 114 103 104 117 109 94 94 104 106 97 93 98 96 92 87 81 73 67 76 76 82 85 74 69 64 65 60 56 50 46 39 32
101 100 251 235 230 201 169 148 132 115 144 182 53 94 115 120 130 142 156 159 144 145 161 156 151 122 99 90 91 90 91 89 88 83 75 71 70 72 69 63 63 54 45 44 42 38 32 27 20
149 208 266 269 207 148 169 158 139 131 208 216 175 147 135 140 154 173 179 163 155 161 181 182 167 152 136 121 123 116 109 103 104 64 8 64 70 56 52 57 51 40 34 29 28 21 18 12 4
276 268 252 276 107 123 180 150 159 171 211 199 168 155 155 169 181 179 182 161 168 181 190 182 175 167 156 144 137 108 99 124 178 193 133 109 97 77 66 58 38 28 19 17 9 359 351 349 347
203 292 296 288 127 117 148 173 180 219 267 121 140 163 175 179 181 182 187 172 182 193 191 181 169 160 127 119 126 145 201 181 161 147 146 133 128 120 118 105 52 20 8 3 344 339 338 337 334
259 292 306 324 337 165 161 162 155 230 146 135 152 183 187 185 183 177 181 191 199 199 186 172 172 154 141 154 169 183 187 172 161 182 194 149 139 134 137 158 285 282 282 292 311 323 325 318 316
335 340 336 307 219 209 136 149 241 199 157 168 183 193 182 189 183 192 197 202 199 188 166 169 177 178 179 188 189 187 189 175 181 234 155 136 135 141 160 263 280 281 293 308 321 324 324 317 314
19 42 352 291 224 247 160 233 243 191 164 181 195 199 184 200 200 203 208 210 187 160 157 171 188 183 193 196 193 196 203 191 199 198 212 207 212 237 309 320 306 316 322 326 329 321 317 309 299
18 155 334 309 317 271 210 244 240 178 168 183 202 207 195 213 220 213 206 186 160 156 160 189 196 194 200 197 179 151 146 44 351 354 341 348 358 0 354 344 340 342 336 330 324 313 303 298 290
211 51 320 279 296 329 264 273 293 203 176 194 212 221 221 226 232 220 191 143 127 117 139 222 337 1 6 21 35 42 47 36 33 31 37 40 37 30 20 359 346 350 339 326 320 306 298 284 286
183 243 286 279 282 357 274 272 277 161 186 216 239 264 261 258 247 160 121 108 98 87 75 50 48 48 55 59 65 77 69 67 61 57 60 61 56 49 44 19 342 334 324 309 306 315 315 310 297
191 214 248 274 330 40 334 340 349 74 49 26 307 274 294 307 58 85 95 97 92 91 92 89 96 100 92 92 80 90 105 120 128 105 68 63 63 53 38 339 304 298 305 307 318 326 312 297 283
184 178 186 197 350 36 35 355 3 14 23 22 27 45 39 45 63 63 69 80 85 84 88 96 107 106 113 126 116 95 88 55 340 327 321 320 342 342 350 338 313 313 321 320 321 311 300 301 300
180 165 134 106 82 359 43 245 11 26 32 16 6 29 31 28 42 47 52 58 67 78 88 102 111 111 115 124 124 110 87 314 296 297 302 317 336 343 350 345 330 312 303 289 275 266 271 285 295
170 107 76 73 85 64 16 69 313 5 28 19 8 24 31 31 46 52 54 63 67 76 89 95 91 77 62 56 52 60 46 302 294 305 318 328 333 343 340 334 319 303 295 285 281 270 264 272 287
124 80 45 42 59 76 220 124 320 354 326 345 7 26 29 32 45 53 57 65 65 63 72 78 83 72 58 56 46 53 13 329 330 329 332 332 327 327 325 323 314 303 295 283 271 263 262 265 271
81 95 47 2 25 232 189 121 279 325 336 36 56 32 30 33 41 52 61 63 63 59 56 60 64 49 35 43 42 39 34 24 2 345 334 322 320 318 319 316 315 310 300 293 288 285 280 268 264
145 137 161 183 191 261 45 117 206 6 7 21 40 42 46 45 47 52 47 40 27 22 29 39 44 40 32 34 38 47 42 32 3 331 314 304 303 304 304 305 309 301 293 286 283 281 278 272 263
143 128 128 117 94 214 186 128 154 51 29 21 33 40 35 32 39 45 36 24 16 22 33 38 47 47 44 44 43 38 20 354 318 301 287 287 293 300 305 302 298 292 285 282 279 275 272 268 264
102 128 114 121 155 207 245 212 188 153 46 28 25 25 21 22 25 17 14 18 20 29 40 46 53 56 44 32 20 3 343 326 319 317 316 313 306 299 297 297 293 291 289 286 279 278 276 273 271
94 68 88 125 148 183 209 240 179 152 139 60 23 33 36 19 12 11 11 13 22 28 31 29 22 17 13 4 354 347 338 330 323 314 309 305 300 292 289 293 290 288 290 290 287 289 291 289 286
96 111 126 152 197 149 184 216 124 110 77 43 46 72 36 357 348 348 354 7 18 15 12 12 6 1 353 348 345 340 330 322 315 307 302 300 297 293 289 290 289 293 296 299 299 297 298 297 295
Height
1513 1514 1515 1516 1522 1531 1531 1522 1514 1512 1511 1509 1510 1510 1511 1512 1517 1522 1510 1510 1514 1516 1520 1525 1529 1529 1528 1530 1532 1534 1537 1537 1538 1540 1541 1543 1544 1545 1546 1548 1549 1549 1549 1549 1549 1550 1550 1550 1550
1513 1513 1516 1516 1529 1539 1530 1517 1513 1510 1510 1510 1511 1510 1509 1507 1508 1508 1508 1513 1515 1519 1524 1527 1530 1531 1531 1531 1533 1536 1538 1539 1539 1540 1542 1543 1545 1546 1547 1549 1549 1550 1550 1550 1549 1549 1550 1551 1551
1512 1514 1516 1520 1534 1533 1526 1512 1511 1511 1511 1512 1513 1513 1513 1510 1510 1510 1510 1514 1517 1522 1526 1530 1532 1532 1533 1534 1534 1536 1538 1539 1540 1541 1544 1546 1546 1546 1547 1548 1550 1551 1551 1551 1551 1551 1551 1552 1552
1513 1516 1518 1524 1528 1520 1514 1509 1510 1513 1514 1514 1513 1513 1514 1513 1513 1513 1512 1516 1521 1524 1526 1531 1533 1532 1534 1535 1534 1536 1538 1540 1541 1542 1544 1548 1550 1549 1550 1548 1549 1551 1553 1554 1552 1552 1553 1553 1551
1513 1515 1524 1528 1524 1513 1509 1508 1509 1512 1514 1515 1513 1513 1512 1513 1515 1515 1516 1520 1523 1525 1527 1531 1533 1533 1535 1536 1535 1537 1539 1541 1542 1543 1544 1547 1548 1546 1552 1550 1551 1552 1553 1553 1553 1551 1552 1554 1550
1514 1515 1527 1531 1522 1511 1506 1506 1509 1513 1514 1514 1513 1513 1513 1514 1516 1518 1521 1523 1525 1528 1530 1532 1533 1534 1536 1536 1536 1537 1540 1540 1542 1543 1545 1546 1548 1548 1549 1550 1552 1553 1553 1553 1553 1552 1552 1553 1550
1513 1518 1524 1525 1519 1509 1505 1506 1510 1511 1513 1514 1512 1513 1514 1515 1518 1521 1524 1526 1528 1530 1532 1534 1534 1536 1537 1538 1537 1539 1540 1541 1543 1544 1545 1546 1547 1548 1548 1550 1551 1552 1551 1553 1552 1550 1553 1551 1547
1511 1516 1521 1521 1516 1507 1503 1506 1508 1510 1514 1515 1514 1513 1512 1515 1520 1523 1525 1527 1529 1531 1533 1534 1536 1538 1539 1539 1539 1540 1541 1542 1543 1543 1545 1547 1548 1549 1549 1550 1551 1552 1551 1551 1550 1551 1551 1550 1547
1511 1520 1521 1513 1510 1505 1504 1507 1509 1511 1512 1514 1514 1512 1512 1514 1518 1522 1525 1528 1530 1532 1533 1535 1537 1538 1539 1540 1540 1541 1541 1542 1544 1545 1546 1548 1549 1550 1550 1550 1551 1550 1550 1549 1549 1550 1550 1548 1547
1510 1520 1514 1505 1502 1502 1503 1504 1507 1511 1514 1514 1513 1512 1513 1514 1519 1522 1524 1526 1529 1532 1534 1536 1538 1539 1540 1540 1540 1540 1541 1542 1544 1545 1546 1548 1549 1550 1549 1550 1549 1549 1549 1549 1548 1549 1549 1547 1546
1508 1511 1506 1502 1500 1501 1502 1503 1506 1509 1513 1510 1508 1511 1514 1517 1520 1522 1523 1527 1530 1533 1535 1538 1540 1540 1540 1540 1540 1541 1541 1542 1543 1545 1547 1548 1549 1550 1550 1550 1549 1549 1549 1549 1549 1551 1549 1548 1547
1508 1505 1504 1501 1500 1501 1502 1502 1505 1506 1506 1507 1508 1509 1512 1514 1516 1519 1524 1527 1530 1532 1535 1537 1539 1540 1541 1541 1541 1541 1542 1542 1544 1546 1547 1548 1549 1550 1551 1551 1550 1549 1550 1549 1550 1551 1550 1549 1548
1506 1504 1503 1500 1500 1501 1504 1503 1504 1504 1506 1507 1509 1511 1511 1512 1516 1521 1525 1528 1530 1532 1535 1538 1540 1541 1542 1542 1542 1542 1542 1542 1544 1546 1547 1548 1548 1548 1549 1549 1549 1551 1551 1551 1552 1551 1549 1547 1546
1505 1504 1502 1500 1501 1502 1503 1503 1506 1504 1506 1508 1509 1511 1512 1513 1516 1521 1525 1528 1529 1532 1535 1538 1540 1542 1542 1542 1543 1543 1542 1543 1545 1546 1547 1547 1548 1548 1548 1549 1551 1552 1552 1552 1551 1549 1547 1546 1544
1503 1504 1503 1500 1500 1501 1504 1508 1504 1502 1504 1506 1508 1510 1513 1515 1517 1519 1522 1524 1526 1530 1534 1537 1540 1540 1541 1542 1543 1542 1542 1543 1545 1545 1546 1546 1548 1549 1550 1551 1552 1552 1552 1551 1549 1547 1546 1544 1542
1505 1510 1514 1504 1501 1501 1507 1514 1500 1500 1501 1504 1508 1510 1513 1515 1516 1519 1522 1523 1525 1529 1534 1538 1539 1540 1541 1543 1544 1544 1544 1544 1545 1546 1546 1548 1549 1550 1551 1550 1551 1551 1550 1549 1547 1546 1544 1541 1538
1514 1518 1515 1509 1502 1502 1506 1507 1495 1496 1499 1503 1506 1507 1511 1514 1516 1518 1520 1523 1525 1529 1534 1537 1540 1541 1542 1542 1543 1543 1544 1545 1546 1546 1546 1547 1548 1548 1548 1549 1548 1546 1545 1544 1542 1541 1539 1536 1533
1520 1517 1515 1514 1505 1503 1505 1505 1497 1495 1496 1499 1502 1505 1510 1512 1513 1516 1519 1523 1525 1530 1535 1539 1541 1542 1542 1542 1541 1542 1544 1545 1546 1546 1546 1546 1546 1545 1545 1545 1544 1543 1542 1541 1538 1535 1533 1531 1527
1511 1513 1516 1512 1502 1504 1505 1501 1498 1497 1498 1499 1502 1505 1508 1509 1512 1515 1518 1521 1524 1528 1532 1536 1538 1540 1540 1540 1541 1542 1543 1543 1544 1544 1544 1545 1544 1543 1542 1540 1539 1537 1535 1534 1533 1528 1524 1520 1519
1511 1514 1515 1509 1502 1503 1503 1503 1501 1501 1504 1508 1508 1508 1508 1508 1508 1511 1513 1517 1522 1526 1529 1532 1537 1540 1542 1542 1542 1543 1542 1541 1541 1541 1542 1542 1541 1540 1538 1536 1533 1531 1528 1525 1523 1521 1516 1513 1514
1509 1512 1509 1511 1505 1506 1508 1512 1508 1505 1504 1505 1507 1507 1507 1507 1508 1510 1512 1515 1520 1525 1528 1532 1536 1539 1541 1542 1542 1542 1542 1542 1541 1541 1540 1539 1538 1536 1532 1530 1527 1524 1521 1519 1518 1517 1513 1509 1506
1508 1501 1504 1507 1514 1522 1521 1530 1520 1521 1520 1518 1515 1511 1509 1509 1510 1512 1515 1517 1521 1525 1529 1531 1534 1536 1539 1541 1541 1540 1541 1541 1540 1538 1536 1534 1532 1529 1527 1525 1524 1521 1517 1513 1511 1509 1507 1503 1498
1502 1502 1507 1512 1519 1524 1527 1531 1526 1522 1525 1526 1522 1517 1515 1515 1515 1516 1518 1521 1524 1527 1529 1531 1533 1535 1537 1537 1537 1537 1538 1538 1535 1533 1531 1530 1528 1525 1522 1520 1518 1516 1511 1507 1504 1500 1497 1495 1490
1498 1506 1516 1524 1530 1537 1530 1533 1538 1538 1536 1530 1528 1523 1521 1520 1519 1520 1522 1525 1527 1530 1532 1533 1534 1535 1535 1535 1534 1534 1534 1533 1531 1528 1526 1525 1523 1520 1518 1514 1510 1507 1504 1499 1495 1492 1487 1484 1482
1502 1513 1531 1535 1540 1538 1533 1538 1549 1542 1536 1532 1531 1528 1525 1524 1525 1526 1528 1531 1533 1535 1535 1535 1534 1535 1535 1534 1532 1531 1530 1529 1528 1526 1522 1519 1515 1512 1509 1505 1500 1497 1493 1489 1485 1480 1477 1473 1470
1503 1512 1532 1542 1547 1541 1532 1541 1548 1542 1539 1536 1534 1533 1531 1531 1532 1533 1534 1536 1537 1537 1537 1536 1535 1535 1534 1532 1531 1529 1528 1525 1523 1520 1517 1512 1508 1503 1499 1494 1490 1486 1482 1477 1473 1469 1465 1461 1458
1506 1509 1512 1530 1543 1545 1542 1546 1544 1541 1541 1540 1538 1536 1536 1537 1537 1538 1538 1538 1539 1538 1537 1535 1535 1533 1532 1530 1528 1525 1524 1521 1518 1513 1509 1505 1500 1495 1490 1485 1480 1475 1471 1466 1461 1457 1453 1449 1447
1497 1502 1520 1523 1541 1549 1541 1543 1542 1542 1543 1542 1541 1540 1539 1540 1540 1540 1539 1539 1538 1537 1535 1534 1533 1531 1530 1528 1525 1523 1520 1516 1511 1506 1501 1496 1491 1486 1480 1475 1470 1465 1461 1456 1452 1448 1444 1440 1437
1503 1508 1512 1522 1527 1535 1541 1544 1539 1541 1543 1543 1542 1541 1541 1541 1540 1540 1539 1539 1538 1537 1536 1534 1533 1530 1527 1525 1522 1518 1513 1508 1502 1497 1491 1486 1481 1476 1470 1465 1461 1457 1452 1449 1445 1441 1436 1432 1429
1503 1510 1515 1524 1528 1536 1536 1543 1541 1542 1543 1544 1543 1543 1543 1542 1542 1541 1540 1539 1538 1537 1535 1533 1530 1526 1523 1519 1515 1511 1506 1501 1495 1489 1484 1478 1473 1467 1462 1458 1454 1450 1446 1442 1438 1433 1429 1425 1421